Location: Newark
(42.7133°N, 87.7910°W)
Time: 15:52:10
(UTC+00:00)

Vanguard 1 - Pass Details

Date: 24 September 2019
Orbit: 653 x 3830 km, 34.3° (Epoch: 14 October)

Event Time Altitude Azimuth Distance (km) Brightness Sun altitude
Rises 07:58:38 0° 246° (WSW) 7,606 - -38.0°
Reaches altitude 10° 08:03:35 10° 244° (WSW) 6,772 - -37.3°
Exits shadow 08:19:26 50° 221° (SW) 4,413 12.8 -35.1°
Maximum altitude 08:26:39 64° 170° (S) 3,860 12.7 -34.1°
Drops below altitude 10° 08:44:27 10° 94° (E) 5,432 14.4 -31.5°
Sets 08:47:53 0° 92° (E) 6,103 14.9 -30.9°
